• In Italy
  • List of Countries
  • For 7 days
  • Water Temperature
  • Satellite Maps
  • Weather Map
  • Weather Widgets
  • user-avatar
    Login

    Hourly Weather Kabul

    Today, 22 June, Friday

    Time Temperature Precipitation Wind Pressure Humidity
    00:00 +23°C° 0 mm 2 mps 609 mmHg 32%
    01:00 +21°C° 0 mm 2 mps 609 mmHg 34%
    02:00 +21°C° 0 mm 2 mps 608 mmHg 35%
    03:00 +20°C° 0 mm 2 mps 608 mmHg 36%
    04:00 +19°C° 0 mm 2 mps 608 mmHg 37%
    05:00 +19°C° 0 mm 2 mps 607 mmHg 38%
    06:00 +20°C° 0 mm 2 mps 608 mmHg 34%
    07:00 +21°C° 0 mm 2 mps 609 mmHg 30%
    08:00 +24°C° 0 mm 2 mps 609 mmHg 26%
    09:00 +25°C° 0 mm 2 mps 609 mmHg 24%
    10:00 +26°C° 0 mm 2 mps 610 mmHg 22%
    11:00 +27°C° 0 mm 2 mps 610 mmHg 20%
    12:00 +28°C° 0 mm 2 mps 610 mmHg 19%
    13:00 +28°C° 0 mm 2 mps 610 mmHg 18%
    14:00 +29°C° 0 mm 2 mps 610 mmHg 18%
    15:00 +29°C° 0.1 mm 2 mps 609 mmHg 19%
    16:00 +28°C° 0.1 mm 3 mps 609 mmHg 20%
    17:00 +28°C° 0.1 mm 3 mps 609 mmHg 21%
    18:00 +27°C° 0 mm 3 mps 609 mmHg 23%
    19:00 +26°C° 0 mm 3 mps 609 mmHg 24%
    20:00 +25°C° 0 mm 3 mps 609 mmHg 26%
    21:00 +25°C° 0 mm 3 mps 609 mmHg 27%
    22:00 +24°C° 0 mm 2 mps 609 mmHg 29%
    23:00 +23°C° 0 mm 2 mps 609 mmHg 30%

    Tomorrow, 23 June, Saturday

    Time Temperature Precipitation Wind Pressure Humidity
    00:00 +23°C° 0 mm 2 mps 609 mmHg 31%
    01:00 +21°C° 0 mm 2 mps 608 mmHg 31%
    02:00 +21°C° 0 mm 2 mps 608 mmHg 32%
    03:00 +20°C° 0 mm 2 mps 607 mmHg 33%
    04:00 +19°C° 0 mm 2 mps 607 mmHg 35%
    05:00 +20°C° 0 mm 1 mps 607 mmHg 36%
    06:00 +21°C° 0 mm 1 mps 608 mmHg 33%
    07:00 +22°C° 0 mm 1 mps 608 mmHg 29%
    08:00 +23°C° 0 mm 1 mps 609 mmHg 26%
    09:00 +24°C° 0 mm 1 mps 609 mmHg 25%
    10:00 +26°C° 0 mm 2 mps 609 mmHg 23%
    11:00 +27°C° 0 mm 2 mps 609 mmHg 22%
    12:00 +27°C° 0 mm 2 mps 609 mmHg 21%
    13:00 +28°C° 0 mm 2 mps 609 mmHg 20%
    14:00 +29°C° 0 mm 2 mps 609 mmHg 19%
    15:00 +29°C° 0 mm 2 mps 609 mmHg 19%
    16:00 +29°C° 0 mm 2 mps 609 mmHg 20%
    17:00 +29°C° 0 mm 2 mps 609 mmHg 20%
    18:00 +28°C° 0 mm 2 mps 609 mmHg 21%
    19:00 +27°C° 0 mm 3 mps 609 mmHg 23%
    20:00 +26°C° 0 mm 3 mps 608 mmHg 25%
    21:00 +25°C° 0 mm 3 mps 608 mmHg 27%
    22:00 +25°C° 0 mm 2 mps 608 mmHg 29%
    23:00 +24°C° 0 mm 2 mps 608 mmHg 30%

    Day after tomorrow, 24 June, Sunday

    Time Temperature Precipitation Wind Pressure Humidity
    00:00 +23°C° 0 mm 2 mps 608 mmHg 31%
    01:00 +23°C° 0 mm 2 mps 607 mmHg 31%
    02:00 +22°C° 0 mm 1 mps 607 mmHg 31%
    03:00 +22°C° 0 mm 1 mps 607 mmHg 32%
    04:00 +21°C° 0 mm 1 mps 607 mmHg 33%
    05:00 +20°C° 0 mm 1 mps 607 mmHg 34%
    06:00 +21°C° 0 mm 2 mps 607 mmHg 31%
    07:00 +23°C° 0 mm 2 mps 608 mmHg 28%
    08:00 +24°C° 0 mm 2 mps 609 mmHg 24%
    09:00 +26°C° 0 mm 3 mps 609 mmHg 23%
    10:00 +27°C° 0 mm 3 mps 609 mmHg 21%
    11:00 +28°C° 0 mm 4 mps 610 mmHg 19%
    12:00 +29°C° 0 mm 4 mps 610 mmHg 18%
    13:00 +30°C° 0 mm 4 mps 610 mmHg 16%
    14:00 +30°C° 0 mm 5 mps 610 mmHg 15%
    15:00 +30°C° 0 mm 6 mps 610 mmHg 15%
    16:00 +30°C° 0 mm 6 mps 610 mmHg 14%
    17:00 +30°C° 0 mm 7 mps 609 mmHg 14%
    18:00 +29°C° 0 mm 6 mps 609 mmHg 15%
    19:00 +27°C° 0 mm 6 mps 609 mmHg 17%
    20:00 +26°C° 0 mm 5 mps 609 mmHg 18%
    21:00 +25°C° 0 mm 4 mps 609 mmHg 20%
    22:00 +23°C° 0 mm 4 mps 609 mmHg 22%
    23:00 +22°C° 0 mm 3 mps 609 mmHg 23%

    25 June, Monday

    Time Temperature Precipitation Wind Pressure Humidity
    00:00 +21°C° 0 mm 3 mps 609 mmHg 25%
    01:00 +20°C° 0 mm 3 mps 608 mmHg 26%
    02:00 +20°C° 0 mm 3 mps 608 mmHg 28%
    03:00 +19°C° 0 mm 3 mps 608 mmHg 29%
    04:00 +19°C° 0 mm 3 mps 608 mmHg 30%
    05:00 +18°C° 0 mm 3 mps 607 mmHg 31%
    06:00 +20°C° 0 mm 3 mps 608 mmHg 28%
    07:00 +21°C° 0 mm 3 mps 609 mmHg 25%
    08:00 +24°C° 0 mm 3 mps 609 mmHg 22%
    09:00 +25°C° 0 mm 3 mps 610 mmHg 19%
    10:00 +27°C° 0 mm 3 mps 610 mmHg 16%
    11:00 +28°C° 0 mm 3 mps 610 mmHg 14%
    12:00 +29°C° 0 mm 4 mps 610 mmHg 13%
    13:00 +30°C° 0 mm 4 mps 610 mmHg 11%
    14:00 +32°C° 0 mm 4 mps 610 mmHg 10%
    15:00 +32°C° 0 mm 4 mps 609 mmHg 10%
    16:00 +32°C° 0 mm 5 mps 609 mmHg 11%
    17:00 +32°C° 0 mm 5 mps 609 mmHg 11%
    18:00 +29°C° 0 mm 5 mps 609 mmHg 13%
    19:00 +28°C° 0 mm 4 mps 608 mmHg 15%
    20:00 +26°C° 0 mm 4 mps 608 mmHg 17%
    21:00 +25°C° 0 mm 3 mps 608 mmHg 19%
    22:00 +24°C° 0 mm 3 mps 608 mmHg 20%
    23:00 +22°C° 0 mm 3 mps 608 mmHg 22%

    26 June, Tuesday

    Time Temperature Precipitation Wind Pressure Humidity
    00:00 +21°C° 0 mm 3 mps 608 mmHg 23%
    01:00 +21°C° 0 mm 3 mps 607 mmHg 24%
    02:00 +20°C° 0 mm 2 mps 607 mmHg 25%
    03:00 +19°C° 0 mm 2 mps 607 mmHg 26%
    04:00 +19°C° 0 mm 2 mps 606 mmHg 27%
    05:00 +18°C° 0 mm 2 mps 606 mmHg 28%
    06:00 +20°C° 0 mm 2 mps 607 mmHg 25%
    07:00 +21°C° 0 mm 2 mps 608 mmHg 23%
    08:00 +24°C° 0 mm 2 mps 608 mmHg 20%
    09:00 +25°C° 0 mm 2 mps 609 mmHg 18%
    10:00 +27°C° 0 mm 3 mps 609 mmHg 15%
    11:00 +28°C° 0 mm 3 mps 609 mmHg 13%
    12:00 +29°C° 0 mm 3 mps 609 mmHg 12%
    13:00 +30°C° 0 mm 3 mps 609 mmHg 11%
    14:00 +31°C° 0 mm 3 mps 609 mmHg 9%
    15:00 +31°C° 0 mm 3 mps 609 mmHg 10%
    16:00 +31°C° 0 mm 3 mps 609 mmHg 10%
    17:00 +32°C° 0 mm 4 mps 609 mmHg 10%
    18:00 +30°C° 0 mm 4 mps 609 mmHg 13%
    19:00 +28°C° 0 mm 3 mps 608 mmHg 15%
    20:00 +27°C° 0 mm 3 mps 608 mmHg 18%
    21:00 +26°C° 0 mm 3 mps 608 mmHg 21%
    22:00 +25°C° 0 mm 2 mps 608 mmHg 23%
    23:00 +24°C° 0 mm 2 mps 608 mmHg 25%

    27 June, Wednesday

    Time Temperature Precipitation Wind Pressure Humidity
    00:00 +23°C° 0 mm 2 mps 607 mmHg 25%
    01:00 +23°C° 0 mm 2 mps 607 mmHg 26%
    02:00 +21°C° 0 mm 2 mps 607 mmHg 26%
    03:00 +21°C° 0 mm 2 mps 607 mmHg 26%
    04:00 +21°C° 0 mm 2 mps 607 mmHg 26%
    05:00 +20°C° 0 mm 2 mps 607 mmHg 26%
    06:00 +21°C° 0 mm 2 mps 607 mmHg 24%
    07:00 +24°C° 0 mm 2 mps 608 mmHg 21%
    08:00 +25°C° 0 mm 2 mps 608 mmHg 19%
    09:00 +26°C° 0 mm 2 mps 609 mmHg 18%
    10:00 +27°C° 0 mm 2 mps 609 mmHg 17%
    11:00 +29°C° 0 mm 2 mps 609 mmHg 16%
    12:00 +29°C° 0 mm 2 mps 609 mmHg 15%
    13:00 +30°C° 0 mm 2 mps 609 mmHg 15%
    14:00 +31°C° 0 mm 2 mps 609 mmHg 15%
    15:00 +31°C° 0.1 mm 3 mps 609 mmHg 16%
    16:00 +30°C° 0.1 mm 3 mps 609 mmHg 18%
    17:00 +30°C° 0.1 mm 3 mps 609 mmHg 20%
    18:00 +29°C° 0.1 mm 3 mps 609 mmHg 22%
    19:00 +28°C° 0.1 mm 3 mps 609 mmHg 25%
    20:00 +27°C° 0.1 mm 3 mps 609 mmHg 28%
    21:00 +26°C° 0 mm 2 mps 609 mmHg 29%
    22:00 +25°C° 0 mm 2 mps 609 mmHg 30%
    23:00 +24°C° 0 mm 2 mps 609 mmHg 32%
    Show more